CW8386 Weather Reports


Display with metric or nautical units.
time (UTC)temp
F
wind
direction
speed
MPH
gust
MPH
rain 1hr
in
rain 24hr
in
rain mn
in
humidity
%
barometer
mb
20260903171045 80 360 4.0 15.0 0.00 0.00 0.00 22 1012.4
20260903170524 79 360 7.0 15.0 0.00 0.00 0.00 22 1012.4
20260903170106 80 360 5.0 15.0 0.00 0.00 0.00 22 1012.4
20260903165525 80 360 7.0 14.0 0.00 0.00 0.00 23 1012.4
20260903165027 79 360 8.0 22.0 0.00 0.00 0.00 23 1012.3
20260903164550 79 360 7.0 22.0 0.00 0.00 0.00 24 1012.3
20260903164052 79 360 8.0 15.0 0.00 0.00 0.00 25 1012.3
20260903163530 78 360 3.0 13.0 0.00 0.00 0.00 26 1012.4
20260903163031 77 360 0.0 0.0 0.00 0.00 0.00 29 1012.4
20260903162553 78 360 0.0 0.0 0.00 0.00 0.00 29 1012.3
20260903162053 77 360 0.0 0.0 0.00 0.00 0.00 30 1012.4
20260903161614 76 360 0.0 0.0 0.00 0.00 0.00 30 1012.5
20260903161034 76 360 0.0 0.0 0.00 0.00 0.00 33 1012.4
20260903160534 76 360 0.0 0.0 0.00 0.00 0.00 31 1012.4
20260903160056 76 360 0.0 0.0 0.00 0.00 0.00 32 1012.5
20260903155616 76 360 0.0 0.0 0.00 0.00 0.00 33 1012.5
20260903155112 75 360 0.0 0.0 0.00 0.00 0.00 33 1012.6
20260903154032 74 360 0.0 0.0 0.00 0.00 0.00 34 1012.6
20260903153532 74 360 0.0 0.0 0.00 0.00 0.00 35 1012.6
20260903153033 74 360 0.0 0.0 0.00 0.00 0.00 35 1012.7
20260903152535 73 360 0.0 0.0 0.00 0.00 0.00 35 1012.7
20260903152117 73 360 0.0 0.0 0.00 0.00 0.00 35 1012.7
20260903151557 73 360 0.0 0.0 0.00 0.00 0.00 35 1012.8
20260903151119 73 360 0.0 0.0 0.00 0.00 0.00 35 1012.8
20260903150036 71 360 0.0 0.0 0.00 0.00 0.00 36 1012.9
20260903145538 70 360 0.0 7.0 0.00 0.00 0.00 37 1012.9
20260903145038 69 360 0.0 11.0 0.00 0.00 0.00 38 1013.0
20260903144540 68 360 2.0 11.0 0.00 0.00 0.00 38 1012.9
20260903144044 67 360 3.0 10.0 0.00 0.00 0.00 38 1012.9
20260903143525 67 360 0.0 0.0 0.00 0.00 0.00 42 1012.8
20260903143028 66 360 0.0 0.0 0.00 0.00 0.00 43 1012.9
20260903142531 65 360 0.0 0.0 0.00 0.00 0.00 44 1012.8
20260903142054 65 360 0.0 0.0 0.00 0.00 0.00 44 1012.7
20260903141539 64 360 0.0 0.0 0.00 0.00 0.00 44 1012.6
20260903141102 65 360 0.0 0.0 0.00 0.00 0.00 44 1012.7
20260903140543 64 360 0.0 0.0 0.00 0.00 0.00 45 1012.6
20260903140045 63 360 0.0 0.0 0.00 0.00 0.00 46 1012.6
20260903135547 61 360 0.0 0.0 0.00 0.00 0.00 46 1012.6
20260903135049 60 360 0.0 0.0 0.00 0.00 0.00 47 1012.5
20260903134550 59 360 0.0 0.0 0.00 0.00 0.00 47 1012.5
20260903134054 59 360 0.0 4.0 0.00 0.00 0.00 47 1012.3
20260903133534 59 360 0.0 6.0 0.00 0.00 0.00 47 1012.3
20260903133036 59 360 2.0 5.0 0.00 0.00 0.00 48 1012.3
20260903132618 59 360 1.0 5.0 0.00 0.00 0.00 47 1012.2
20260903132039 59 360 0.0 4.0 0.00 0.00 0.00 46 1012.3
20260903131542 60 360 0.0 4.0 0.00 0.00 0.00 45 1012.2
20260903131105 60 360 0.0 2.0 0.00 0.00 0.00 45 1012.1
20260903130527 60 360 1.0 2.0 0.00 0.00 0.00 45 1012.1
20260903130049 60 360 0.0 3.0 0.00 0.00 0.00 45 1012.1
20260903125031 60 360 0.0 0.0 0.00 0.00 0.00 46 1012.0
20260903124554 60 360 0.0 3.0 0.00 0.00 0.00 46 1011.9
20260903124057 61 360 0.0 6.0 0.00 0.00 0.00 46 1011.9
20260903123559 60 360 1.0 6.0 0.00 0.00 0.00 45 1011.8
20260903123057 60 360 0.0 9.0 0.00 0.00 0.00 46 1011.8
20260903122539 60 360 0.0 9.0 0.00 0.00 0.00 47 1011.6
20260903122040 60 360 0.0 3.0 0.00 0.00 0.00 48 1011.5
20260903121603 60 360 0.0 3.0 0.00 0.00 0.00 47 1011.4
20260903121104 60 360 0.0 3.0 0.00 0.00 0.00 47 1011.4
20260903120624 60 360 2.0 4.0 0.00 0.00 0.00 47 1011.3
20260903120104 60 360 2.0 4.0 0.00 0.00 0.00 47 1011.2
20260903115605 60 360 3.0 4.0 0.00 0.00 0.00 47 1011.3
20260903115025 61 360 0.0 4.0 0.00 0.00 0.00 46 1011.3
20260903114047 62 360 0.0 4.0 0.00 0.00 0.00 45 1011.3
20260903113528 62 360 2.0 4.0 0.00 0.00 0.00 45 1011.2
20260903113029 62 360 0.0 0.0 0.00 0.00 0.00 45 1011.3
20260903112530 62 360 0.0 5.0 0.00 0.00 0.00 45 1011.3
20260903112032 63 360 1.0 5.0 0.00 0.00 0.00 44 1011.3
20260903111553 63 360 0.0 3.0 0.00 0.00 0.00 43 1011.2
20260903111115 62 360 0.0 3.0 0.00 0.00 0.00 44 1011.4
20260903110615 62 360 0.0 3.0 0.00 0.00 0.00 45 1011.5
20260903110053 61 360 0.0 6.0 0.00 0.00 0.00 45 1011.4
20260903105534 61 360 1.0 7.0 0.00 0.00 0.00 45 1011.5
20260903105054 61 360 6.0 7.0 0.00 0.00 0.00 45 1011.5
20260903104534 61 360 5.0 6.0 0.00 0.00 0.00 45 1011.5
20260903104057 61 360 5.0 6.0 0.00 0.00 0.00 44 1011.5
20260903103556 62 360 0.0 4.0 0.00 0.00 0.00 44 1011.5
20260903103036 62 360 2.0 4.0 0.00 0.00 0.00 43 1011.5
20260903102558 63 360 2.0 4.0 0.00 0.00 0.00 43 1011.5
20260903102043 63 360 0.0 1.0 0.00 0.00 0.00 43 1011.5
20260903101040 64 360 0.0 0.0 0.00 0.00 0.00 41 1011.7
20260903100621 64 360 0.0 0.0 0.00 0.00 0.00 42 1011.7
20260903095525 65 360 3.0 6.0 0.00 0.00 0.00 40 1011.8
20260903095046 65 360 3.0 5.0 0.00 0.00 0.00 40 1011.8
20260903094527 65 360 3.0 7.0 0.00 0.00 0.00 40 1011.8
20260903094049 66 360 2.0 7.0 0.00 0.00 0.00 39 1011.8
20260903093528 67 360 0.0 10.0 0.00 0.00 0.00 39 1011.6
20260903093029 67 360 0.0 10.0 0.00 0.00 0.00 39 1011.5
20260903092530 67 360 2.0 5.0 0.00 0.00 0.00 39 1011.5
20260903091532 66 360 4.0 7.0 0.00 0.00 0.00 40 1011.3
20260903091034 66 360 1.0 6.0 0.00 0.00 0.00 41 1011.2
20260903090533 66 360 0.0 6.0 0.00 0.00 0.00 41 1011.2
20260903090035 66 360 5.0 7.0 0.00 0.00 0.00 41 1011.3
20260903085557 67 360 5.0 7.0 0.00 0.00 0.00 40 1011.1
20260903085037 67 360 2.0 5.0 0.00 0.00 0.00 40 1011.1
20260903084538 69 360 3.0 5.0 0.00 0.00 0.00 38 1011.1
20260903083538 71 360 1.0 8.0 0.00 0.00 0.00 38 1011.3
20260903083039 71 360 1.0 6.0 0.00 0.00 0.00 37 1011.4
20260903082540 71 360 0.0 10.0 0.00 0.00 0.00 38 1011.6
20260903082103 71 360 1.0 10.0 0.00 0.00 0.00 37 1011.6
20260903081603 71 360 1.0 6.0 0.00 0.00 0.00 37 1011.6
20260903081044 71 360 1.0 13.0 0.00 0.00 0.00 37 1011.6
20260903080604 71 360 1.0 13.0 0.00 0.00 0.00 37 1011.5
20260903080024 71 360 3.0 7.0 0.00 0.00 0.00 37 1011.4
20260903075528 71 360 0.0 13.0 0.00 0.00 0.00 37 1011.3
20260903075029 71 360 6.0 13.0 0.00 0.00 0.00 38 1011.4
20260903074551 71 360 0.0 1.0 0.00 0.00 0.00 38 1011.4
20260903074053 70 360 0.0 1.0 0.00 0.00 0.00 39 1011.5
20260903073552 71 360 0.0 1.0 0.00 0.00 0.00 38 1011.5
20260903073114 71 360 0.0 0.0 0.00 0.00 0.00 38 1010.6
20260903072553 72 360 0.0 0.0 0.00 0.00 0.00 38 1010.6
20260903072110 72 360 0.0 1.0 0.00 0.00 0.00 37 1010.7
20260903071533 72 360 0.0 5.0 0.00 0.00 0.00 38 1010.7
20260903071036 72 360 0.0 5.0 0.00 0.00 0.00 37 1010.8
20260903070557 72 360 0.0 6.0 0.00 0.00 0.00 37 1010.9
20260903070119 72 360 0.0 6.0 0.00 0.00 0.00 37 1011.0
20260903065559 71 360 0.0 11.0 0.00 0.00 0.00 38 1011.1
20260903065100 70 360 1.0 11.0 0.00 0.00 0.00 39 1011.0
20260903064616 69 360 4.0 8.0 0.00 0.00 0.00 38 1011.1
20260903064116 70 360 2.0 8.0 0.00 0.00 0.00 37 1011.3
20260903063534 70 360 2.0 6.0 0.00 0.00 0.00 37 1011.1
20260903063056 70 360 1.0 3.0 0.00 0.00 0.00 38 1010.9
20260903062617 68 360 0.0 6.0 0.00 0.00 0.00 39 1010.9
20260903062057 67 360 1.0 6.0 0.00 0.00 0.00 39 1010.9
20260903061537 66 360 5.0 6.0 0.00 0.00 0.00 39 1010.8
20260903061059 66 360 2.0 4.0 0.00 0.00 0.00 38 1010.8
20260903060543 67 360 0.0 3.0 0.00 0.00 0.00 39 1010.8
20260903060045 67 360 0.0 3.0 0.00 0.00 0.00 38 1010.7
20260903055526 67 360 3.0 4.0 0.00 0.00 0.00 38 1010.7
20260903055028 67 360 0.0 4.0 0.00 0.00 0.00 37 1010.5
20260903054549 68 360 3.0 4.0 0.00 0.00 0.00 37 1010.6
20260903054050 68 360 0.0 6.0 0.00 0.00 0.00 37 1010.6
20260903053550 68 360 4.0 6.0 0.00 0.00 0.00 36 1010.5
20260903053031 69 360 4.0 6.0 0.00 0.00 0.00 35 1010.5
20260903052533 71 360 3.0 5.0 0.00 0.00 0.00 34 1010.6
20260903052034 72 360 0.0 0.0 0.00 0.00 0.00 35 1010.8
20260903051612 73 360 0.0 3.0 0.00 0.00 0.00 34 1010.8
20260903050551 73 360 1.0 3.0 0.00 0.00 0.00 32 1010.9
20260903050032 73 360 0.0 1.0 0.00 0.00 0.00 31 1011.0
20260903045529 73 360 0.0 1.0 0.00 0.00 0.00 31 1010.9
20260903045033 73 360 0.0 5.0 0.00 0.00 0.00 31 1011.0
20260903044617 73 360 0.0 7.0 0.00 0.00 0.00 31 1011.0
20260903044037 73 360 4.0 7.0 0.00 0.00 0.00 30 1011.0
20260903043537 74 360 1.0 4.0 0.00 0.00 0.00 30 1011.0
20260903043037 75 360 1.0 5.0 0.00 0.00 0.00 29 1011.0
20260903042539 76 360 3.0 9.0 0.00 0.00 0.00 29 1010.9
20260903042040 76 360 4.0 10.0 0.00 0.00 0.00 29 1010.9
20260903041541 76 360 5.0 12.0 0.00 0.00 0.00 29 1010.8
20260903041027 76 360 5.0 15.0 0.00 0.00 0.00 30 1010.8
20260903040526 76 360 6.0 15.0 0.00 0.00 0.00 29 1010.9
20260903040027 76 360 6.0 13.0 0.00 0.00 0.00 30 1011.0
20260903035550 74 360 6.0 11.0 0.00 0.00 0.00 30 1010.9
20260903035029 72 360 2.0 4.0 0.00 0.00 0.00 31 1010.9
20260903034031 73 360 0.0 1.0 0.00 0.00 0.00 32 1010.9
20260903033551 74 360 0.0 0.0 0.00 0.00 0.00 31 1010.7
20260903033030 75 360 0.0 2.0 0.00 0.00 0.00 31 1010.6
20260903032533 76 360 0.0 2.0 0.00 0.00 0.00 30 1010.5
20260903032054 76 360 0.0 7.0 0.00 0.00 0.00 28 1010.4
20260903031534 76 360 4.0 9.0 0.00 0.00 0.00 28 1010.4
20260903031037 76 360 2.0 9.0 0.00 0.00 0.00 27 1010.4
20260903030556 76 360 2.0 6.0 0.00 0.00 0.00 28 1010.3
20260903030036 77 360 0.0 5.0 0.00 0.00 0.00 27 1010.2
20260903025538 77 360 0.0 6.0 0.00 0.00 0.00 27 1010.2
20260903025040 78 360 2.0 8.0 0.00 0.00 0.00 27 1010.1
20260903024542 78 360 2.0 8.0 0.00 0.00 0.00 26 1010.2
20260903024124 78 360 3.0 9.0 0.00 0.00 0.00 26 1010.2
20260903023543 79 360 3.0 12.0 0.00 0.00 0.00 26 1010.1
20260903023025 79 360 4.0 17.0 0.00 0.00 0.00 25 1010.0
20260903022530 80 360 11.0 17.0 0.00 0.00 0.00 25 1009.9
20260903022031 80 360 12.0 16.0 0.00 0.00 0.00 25 1009.8
20260903021613 80 360 11.0 16.0 0.00 0.00 0.00 25 1009.7
20260903021109 80 360 9.0 15.0 0.00 0.00 0.00 25 1009.6
20260903020532 80 360 10.0 15.0 0.00 0.00 0.00 26 1009.6
20260903020053 81 360 10.0 23.0 0.00 0.00 0.00 25 1009.4
20260903015553 81 360 12.0 26.0 0.00 0.00 0.00 25 1009.5
20260903015033 82 360 10.0 26.0 0.00 0.00 0.00 25 1009.4
20260903014615 82 360 12.0 20.0 0.00 0.00 0.00 25 1009.5
20260903014056 82 360 12.0 18.0 0.00 0.00 0.00 25 1009.4
20260903013613 82 360 9.0 17.0 0.00 0.00 0.00 25 1009.5
20260903013036 82 360 1.0 10.0 0.00 0.00 0.00 26 1009.4
20260903012538 83 360 1.0 11.0 0.00 0.00 0.00 26 1009.3
20260903012040 83 360 1.0 12.0 0.00 0.00 0.00 25 1009.3
20260903011541 83 360 1.0 9.0 0.00 0.00 0.00 25 1009.4
20260903011104 83 360 1.0 9.0 0.00 0.00 0.00 26 1009.3
20260903010544 83 360 1.0 9.0 0.00 0.00 0.00 26 1009.4
20260903010126 82 360 1.0 7.0 0.00 0.00 0.00 25 1009.3
20260903005525 82 360 2.0 7.0 0.00 0.00 0.00 26 1009.4
20260903005047 82 360 1.0 6.0 0.00 0.00 0.00 26 1009.4
20260903004548 83 360 2.0 7.0 0.00 0.00 0.00 26 1009.4
20260903004029 83 360 0.0 7.0 0.00 0.00 0.00 26 1009.4
20260903003549 83 360 0.0 2.0 0.00 0.00 0.00 26 1009.3
20260903003030 83 360 0.0 6.0 0.00 0.00 0.00 26 1009.4
20260903002532 83 360 0.0 10.0 0.00 0.00 0.00 26 1009.4
20260903002113 83 360 3.0 12.0 0.00 0.00 0.00 26 1009.5
20260903001613 83 360 5.0 12.0 0.00 0.00 0.00 26 1009.4
20260903001033 83 360 4.0 20.0 0.00 0.00 0.00 26 1009.4
20260903000554 83 360 3.0 20.0 0.00 0.00 0.00 26 1009.3
20260903000055 84 360 11.0 15.0 0.00 0.00 0.00 25 1009.4
20260902235534 84 360 6.0 15.0 0.00 0.00 0.00 25 1009.4
20260902235037 84 360 1.0 15.0 0.00 0.00 0.00 25 1009.3
20260902234557 85 360 0.0 11.0 0.00 0.00 0.00 25 1009.4
20260902234038 85 360 0.0 15.0 0.00 0.00 0.00 25 1009.6
20260902233539 85 360 8.0 16.0 0.00 0.00 0.00 25 1009.6
20260902233102 85 360 3.0 21.0 0.00 0.00 0.00 24 1009.6
20260902232527 85 360 10.0 28.0 0.00 0.00 0.00 24 1009.6
20260902232124 86 360 18.0 28.0 0.00 0.00 0.00 23 1009.6
20260902231527 86 360 19.0 26.0 0.00 0.00 0.00 23 1009.5
20260902231029 85 360 11.0 26.0 0.00 0.00 0.00 23 1009.5
20260902230529 85 360 10.0 32.0 0.00 0.00 0.00 23 1009.6
20260902230031 86 360 5.0 32.0 0.00 0.00 0.00 23 1009.5
20260902225532 86 360 12.0 32.0 0.00 0.00 0.00 23 1009.5
20260902225034 86 360 19.0 29.0 0.00 0.00 0.00 23 1009.5
20260902224534 85 360 3.0 25.0 0.00 0.00 0.00 24 1009.5
20260902224057 85 360 5.0 30.0 0.00 0.00 0.00 24 1009.8
20260902223616 85 360 20.0 30.0 0.00 0.00 0.00 25 1009.9
20260902223035 85 360 6.0 16.0 0.00 0.00 0.00 25 1009.8
20260902222557 85 360 5.0 31.0 0.00 0.00 0.00 25 1010.0
20260902222058 85 360 7.0 31.0 0.00 0.00 0.00 25 1009.9
20260902221559 85 360 5.0 20.0 0.00 0.00 0.00 27 1010.0
20260902221040 85 360 10.0 20.0 0.00 0.00 0.00 26 1009.9
20260902220540 85 360 2.0 23.0 0.00 0.00 0.00 26 1010.1
20260902220122 85 360 9.0 23.0 0.00 0.00 0.00 25 1010.0
20260902215542 85 360 4.0 24.0 0.00 0.00 0.00 26 1010.0
20260902215024 84 360 7.0 24.0 0.00 0.00 0.00 26 1010.1
20260902214546 84 360 5.0 18.0 0.00 0.00 0.00 26 1010.3
20260902214107 84 360 8.0 18.0 0.00 0.00 0.00 26 1010.2
20260902213607 84 360 5.0 33.0 0.00 0.00 0.00 26 1010.3
20260902213025 85 360 12.0 33.0 0.00 0.00 0.00 26 1010.3
20260902212527 84 360 5.0 21.0 0.00 0.00 0.00 26 1010.4
20260902212049 84 360 4.0 17.0 0.00 0.00 0.00 26 1010.4
20260902211529 84 360 3.0 17.0 0.00 0.00 0.00 27 1010.5
20260902210532 84 360 5.0 18.0 0.00 0.00 0.00 27 1010.5
20260902210033 84 360 8.0 21.0 0.00 0.00 0.00 27 1010.6
20260902205535 84 360 4.0 26.0 0.00 0.00 0.00 27 1010.7
20260902204613 84 360 13.0 27.0 0.00 0.00 0.00 27 1010.8
20260902204053 84 360 15.0 27.0 0.00 0.00 0.00 27 1011.0
20260902203532 84 360 1.0 32.0 0.00 0.00 0.00 27 1011.0
20260902203115 84 360 8.0 32.0 0.00 0.00 0.00 27 1011.1
20260902202052 84 360 5.0 13.0 0.00 0.00 0.00 27 1011.0
20260902201613 84 360 3.0 18.0 0.00 0.00 0.00 28 1011.2
20260902201053 83 360 10.0 19.0 0.00 0.00 0.00 28 1011.2
20260902200532 83 360 4.0 29.0 0.00 0.00 0.00 29 1011.4
20260902195553 82 360 0.0 21.0 0.00 0.00 0.00 28 1011.3
20260902195054 82 360 2.0 23.0 0.00 0.00 0.00 29 1011.5
20260902194535 82 360 1.0 15.0 0.00 0.00 0.00 30 1011.6
20260902194058 83 360 4.0 16.0 0.00 0.00 0.00 29 1011.6
20260902193618 83 360 7.0 23.0 0.00 0.00 0.00 29 1011.6
20260902193118 83 360 17.0 25.0 0.00 0.00 0.00 30 1011.9
20260902192618 82 360 15.0 26.0 0.00 0.00 0.00 30 1011.9
20260902192057 82 360 12.0 26.0 0.00 0.00 0.00 30 1012.1
20260902191537 81 360 1.0 26.0 0.00 0.00 0.00 30 1011.9
20260902191121 82 360 4.0 28.0 0.00 0.00 0.00 29 1012.1
20260902190558 82 360 5.0 28.0 0.00 0.00 0.00 27 1012.2
20260902190039 83 360 15.0 24.0 0.00 0.00 0.00 26 1012.2
20260902185541 83 360 18.0 24.0 0.00 0.00 0.00 26 1012.4
20260902185123 83 360 9.0 22.0 0.00 0.00 0.00 27 1012.3
20260902184602 82 360 10.0 21.0 0.00 0.00 0.00 26 1012.2
20260902184045 83 360 6.0 18.0 0.00 0.00 0.00 27 1012.3
20260902183524 82 360 7.0 21.0 0.00 0.00 0.00 27 1012.3
20260902183046 82 360 4.0 21.0 0.00 0.00 0.00 28 1012.4
20260902182526 83 360 9.0 16.0 0.00 0.00 0.00 27 1012.5
20260902182048 83 360 9.0 31.0 0.00 0.00 0.00 27 1012.6
20260902181529 83 360 9.0 31.0 0.00 0.00 0.00 27 1012.6
20260902181030 83 360 5.0 17.0 0.00 0.00 0.00 28 1012.7
20260902180611 82 360 1.0 17.0 0.00 0.00 0.00 28 1012.7
20260902180051 82 360 5.0 19.0 0.00 0.00 0.00 28 1012.8
20260902175532 82 360 11.0 19.0 0.00 0.00 0.00 27 1012.8
20260902175034 82 360 7.0 17.0 0.00 0.00 0.00 27 1012.8
20260902174556 82 360 5.0 17.0 0.00 0.00 0.00 28 1012.8
20260902174036 82 360 3.0 18.0 0.00 0.00 0.00 28 1012.8
20260902173555 81 360 8.0 18.0 0.00 0.00 0.00 28 1012.9
20260902173055 81 360 10.0 20.0 0.00 0.00 0.00 30 1012.9
20260902172555 81 360 5.0 21.0 0.00 0.00 0.00 30 1013.0
20260902172039 81 360 5.0 21.0 0.00 0.00 0.00 29 1013.0
20260902171617 81 360 5.0 25.0 0.00 0.00 0.00 30 1013.0